SCP
0 0 0 0 0 0 0 0 0 0 0 0 0 0 0 0 0 0 0 0 0 0 0 0 0 0 0 0 0 0 0 0 0 0 0 0 0 0 0 0 0 0 0 0
0 0 0 0 0 0 0 0 0 0 0 0 0 0 0 0 0 0 0 0 0 0 0 0 0 0 0 0 0 0 0 0 0 0 0 0 0 0 0 0 0 0 0 0
0 0 0 0 0 0 0 0 0 0 0 0 0 0 0 0 0 0 0 0 0 0 0 0 0 0 0 0 0 0 0 0 0 0 0 0 0 0 0 0 0 0 0 0
0 0 0 0 0 0 0 0 0 0 0 0 0 0 0 0 0 0 0 0 0 0 0 0 0 0 0 0 0 0 0 0 0 0 0 0 0 0 0 0 0 0 0 0
0 0 0 0 0 0 0 0 0 0 0 0 0 0 0 0 0 0 0 0 0 0 0 0 0 0 0 0 0 0 0 0 0 0 0 0 0 0 0 0 0 0 0 0
0 0 0 0 0 0 0 0 0 0 0 0 0 0 0 0 0 0 0 0 0 0 0 0 0 0 0 0 0 0 0 0 0 0 0 0 0 0 0 0 0 0 0 0
0 0 0 0 0 0 0 0 0 0 0 0 0 0 0 0 0 0 0 0 0 0 0 0 0 0 0 0 0 0 0 0 0 0 0 0 0 0 0 0 0 0 0 0
0 0 0 0 0 0 0 0 0 0 0 0 0 0 0 0 0 0 0 0 0 0 0 0 0 0 0 0 0 0 0 0 0 0 0 0 0 0 0 0 0 0 0 0
0 0 0 0 0 0 0 0 0 0 0 0 0 0 0 0 0 0 0 0 0 0 0 0 0 0 0 0 0 0 0 0 0 0 0 0 0 0 0 0 0 0 0 0
0 0 0 0 0 0 0 0 0 0 0 0 0 0 0 0 0 0 0 0 0 0 0 0 0 0 0 0 0 0 0 0 0 0 0 0 0 0 0 0 0 0 0 0
0 0 0 0 0 0 0 0 0 0 0 0 0 0 0 0 0 0 0 0 0 0 0 0 0 0 0 0 0 0 0 0 0 0 0 0 0 0 0 0 0 0 0 0
0 0 0 0 0 0 0 0 0 0 0 0 0 0 0 0 0 0 0 0 0 0 0 0 0 0 0 0 0 0 0 0 0 0 0 0 0 0 0 0 0 0 0 0
0 0 0 0 0 0 0 0 0 0 0 0 0 0 0 0 0 0 0 0 0 0 0 0 0 0 0 0 0 0 0 0 0 0 0 0 0 0 0 0 0 0 0 0
0 0 0 0 0 0 0 0 0 0 0 0 0 0 0 0 0 0 0 0 0 0 0 0 0 0 0 0 0 0 0 0 0 0 0 0 0 0 0 0 0 0 0 0
0 0 0 0 0 0 0 0 0 0 0 0 0 0 0 0 0 0 0 0 0 0 0 0 0 0 0 0 0 0 0 0 0 0 0 0 0 0 0 0 0 0 0 0
0 0 0 0 0 0 0 0 0 0 0 0 0 0 0 0 0 0 0 0 0 0 0 0 0 0 0 0 0 0 0 0 0 0 0 0 0 0 0 0 0 0 0 0
0 0 0 0 0 0 0 0 0 0 0 0 0 0 0 0 0 0 0 0 0 0 0 0 0 0 0 0 0 0 0 0 0 0 0 0 0 0 0 0 0 0 0 0
0 0 0 0 0 0 0 0 0 0 0 0 0 0 0 0 0 0 0 0 0 0 0 0 0 0 0 0 0 0 0 0 0 0 0 0 0 0 0 0 0 0 0 0
0 0 0 0 0 0 0 0 0 0 0 0 0 0 0 0 0 0 0 0 0 0 0 0 0 0 0 0 0 0 0 0 0 0 0 0 0 0 0 0 0 0 0 0
0 0 0 0 0 0 0 0 0 0 0 0 0 0 0 0 0 0 0 0 0 0 0 0 0 0 0 0 0 0 0 0 0 0 0 0 0 0 0 0 0 0 0 0
0 0 0 0 0 0 0 0 0 0 0 0 0 0 0 0 0 0 0 0 0 0 0 0 0 0 0 0 0 0 0 0 0 0 0 0 0 0 0 0 0 0 0 0
0 0 0 0 0 0 0 0 0 0 0 0 0 0 0 0 0 0 0 0 0 0 0 0 0 0 0 0 0 0 0 0 0 0 0 0 0 0 0 0 0 0 0 0
0 0 0 0 0 0 0 0 0 0 0 0 0 0 0 0 0 0 0 0 0 0 0 0 0 0 0 0 0 0 0 0 0 0 0 0 0 0 0 0 0 0 0 0
0 0 0 0 0 0 0 0 0 0 0 0 0 0 0 0 0 0 0 0 0 0 0 0 0 0 0 0 0 0 0 0 0 0 0 0 0 0 0 0 0 0 0 0
0 0 0 0 0 0 0 0 0 0 0 0 0 0 0 0 0 0 0 0 0 0 0 0 0 0 0 0 0 0 0 0 0 0 0 0 0 0 0 0 0 0 0 0
0 0 0 0 0 0 0 0 0 0 0 0 0 0 0 0 0 0 0 0 0 0 0 0 0 0 0 0 0 0 0 0 0 0 0 0 0 0 0 0 0 0 0 0
Wind_Speed_500mb
26 20 29 35 34 10 28 28 22 17 6 12 25 30 29 30 23 22 26 26 26 27 23 22 28 33 37 41 44 47 46 45 53 55 58 61 61 58 57 55 50 46 44 41
14 31 26 10 13 12 20 29 19 9 6 8 11 25 27 33 38 35 36 35 33 30 28 25 33 39 45 50 53 55 52 50 54 59 61 60 57 60 58 56 56 52 50 48
24 14 20 15 12 19 12 24 19 3 10 4 13 22 31 29 39 34 31 32 29 24 29 24 28 34 40 43 51 62 63 58 53 56 56 57 53 54 57 58 59 57 52 53
16 7 20 24 27 14 14 5 14 18 14 11 5 9 8 17 21 21 30 32 29 21 25 27 26 26 31 38 40 43 48 51 57 54 47 50 58 60 56 52 55 53 50 51
10 16 24 25 22 25 6 12 13 10 6 7 12 10 10 5 17 22 25 18 15 14 15 13 17 20 21 24 30 33 36 40 44 53 53 50 52 47 37 37 41 44 43 42
8 1 5 6 13 5 28 19 16 8 5 10 21 16 13 14 7 9 18 16 15 13 12 13 13 13 11 11 12 14 18 21 29 39 47 47 42 42 34 36 38 40 40 37
8 9 4 9 17 12 13 28 7 9 9 11 5 5 24 4 5 7 18 16 17 15 14 12 13 13 12 11 8 7 8 12 19 29 39 42 41 39 40 38 36 33 35 33
23 14 20 16 5 14 27 29 10 13 11 6 6 15 10 2 7 14 11 11 16 18 17 15 15 14 13 12 10 8 9 10 13 20 29 35 41 37 32 32 34 35 38 32
24 16 5 2 1 11 13 13 6 11 4 0 13 14 15 16 11 14 19 18 17 16 14 16 15 14 12 10 10 9 9 10 12 15 18 22 26 28 28 26 27 27 31 32
7 8 2 5 4 2 9 19 7 5 8 9 11 13 18 12 22 20 22 26 21 16 15 16 16 14 12 12 11 11 11 11 11 12 12 12 14 15 18 20 21 23 24 23
12 5 4 6 18 26 9 10 9 7 6 7 5 9 7 8 20 26 28 28 24 21 19 18 17 16 14 14 14 15 15 15 15 16 17 16 17 16 15 14 13 11 12 12
5 9 9 17 6 7 10 21 25 10 12 12 3 12 5 7 2 28 30 28 23 22 21 20 21 20 19 19 20 21 21 21 21 20 20 21 19 16 15 13 10 9 9 12
17 8 8 4 4 3 14 20 30 27 7 12 10 15 4 8 10 19 32 31 29 27 24 25 25 26 25 24 25 25 25 24 23 22 19 16 13 11 7 4 3 7 11 15
23 6 21 28 9 19 17 24 22 23 8 30 23 40 10 13 19 25 28 31 31 32 30 29 30 29 29 27 27 27 26 24 21 18 14 11 8 5 1 3 6 9 14 17
11 12 12 25 9 5 7 23 29 33 46 25 46 42 31 18 23 41 36 31 34 38 39 35 34 33 32 29 27 26 24 22 19 15 11 8 5 1 3 7 11 13 18 22
7 4 4 4 7 5 3 14 36 44 47 41 51 40 17 6 31 32 41 43 47 45 42 39 39 38 36 32 29 26 22 19 15 12 8 4 2 4 8 12 16 20 25 29
14 11 7 5 7 10 8 44 27 32 39 37 42 59 14 14 24 35 46 57 57 49 47 47 45 42 37 32 28 25 21 16 12 8 4 1 4 8 13 17 22 27 31 35
11 11 4 7 6 12 14 6 37 39 36 36 42 43 19 20 47 57 65 68 55 55 53 50 48 44 39 33 27 22 17 12 7 3 2 7 11 15 20 25 32 37 40 43
4 8 6 9 14 19 30 7 14 19 42 41 44 45 41 22 10 33 45 46 56 58 54 52 47 43 38 32 27 22 17 11 5 5 9 15 21 25 29 34 39 44 48 50
6 4 10 7 12 18 6 7 10 12 34 20 36 39 24 27 16 21 37 40 48 54 60 59 49 45 37 32 26 20 12 4 9 15 18 23 28 34 40 44 49 53 57 61
10 5 26 24 11 13 7 16 16 18 7 6 4 9 15 13 21 13 32 47 54 58 58 54 48 42 34 27 15 6 13 17 16 19 25 30 36 41 47 51 54 59 62 66
20 18 9 5 13 29 17 13 18 2 2 4 4 6 19 22 15 30 42 54 60 61 56 49 45 37 24 14 18 20 15 17 21 25 31 36 41 47 51 55 56 60 64 68
12 7 10 17 10 5 35 6 19 1 5 5 7 9 19 29 35 42 53 57 57 55 52 46 36 23 25 21 17 16 17 21 25 31 36 40 43 48 52 57 59 61 61 65
11 7 4 4 9 4 8 19 15 10 18 18 17 14 26 38 46 51 57 58 56 51 45 37 29 27 22 18 15 17 21 24 28 32 37 43 48 51 55 59 62 64 62 63
5 21 10 10 4 6 22 30 23 25 19 17 18 22 32 44 56 59 59 55 50 43 37 33 28 22 18 18 19 19 21 25 31 37 42 46 50 54 56 57 59 61 59 58
15 10 12 10 10 6 2 9 28 25 24 26 31 37 38 46 57 55 52 47 43 38 32 27 23 20 19 20 19 20 24 28 32 35 40 45 49 53 57 61 64 60 64 62
Wind_Direction_500mb
190 198 200 195 203 247 197 203 201 189 126 217 232 249 246 241 224 242 242 231 219 219 216 225 228 236 239 236 233 233 227 230 241 237 235 238 241 243 244 247 248 246 246 245
172 215 199 147 134 152 180 193 186 130 135 207 231 259 255 248 242 234 238 237 227 217 222 246 248 243 247 245 240 235 232 229 237 242 241 241 245 247 252 254 253 251 250 250
196 193 147 167 162 177 193 194 168 194 155 232 283 266 246 237 244 237 232 236 241 235 234 235 246 246 242 248 243 240 238 235 230 243 242 236 237 244 250 249 253 254 251 251
231 141 179 184 189 169 185 95 138 134 176 230 265 262 177 225 225 213 229 223 228 225 242 238 238 241 235 237 242 240 240 241 237 223 230 238 235 237 247 252 257 256 255 251
162 155 180 179 193 193 155 114 114 135 195 292 185 263 237 146 250 222 196 181 193 196 192 206 216 227 232 235 239 237 238 240 236 219 220 227 241 236 241 251 248 254 257 250
98 358 198 157 72 228 137 122 95 114 191 246 231 223 251 209 227 121 151 172 175 169 171 177 186 184 193 194 213 223 228 233 226 218 221 222 235 235 227 226 243 251 253 249
129 148 116 170 101 136 193 162 144 194 201 245 56 210 246 183 157 220 163 168 159 157 157 157 166 165 163 154 156 181 205 222 229 231 227 225 225 239 232 228 231 246 254 253
182 193 181 168 202 181 194 191 178 190 195 191 88 230 245 23 83 170 168 168 161 156 170 171 179 172 164 162 167 195 208 216 218 220 219 217 215 216 225 226 226 230 246 253
193 173 63 82 52 158 170 202 71 109 43 99 203 247 273 177 178 198 181 180 174 162 165 178 182 179 172 177 184 195 209 220 220 224 226 227 223 219 221 226 230 235 239 245
211 118 21 100 169 165 214 146 152 232 178 225 224 258 244 206 217 191 184 186 174 168 175 179 177 179 176 172 174 174 187 192 189 191 190 187 185 191 197 207 216 223 235 240
163 110 107 167 211 181 159 180 214 241 201 208 243 232 32 288 188 190 187 179 173 170 177 179 175 172 168 166 168 168 163 161 162 161 161 162 165 169 174 177 184 196 210 226
168 101 154 196 47 357 282 212 186 190 202 238 35 262 93 52 164 179 174 166 163 171 170 169 163 162 164 163 154 151 150 147 141 138 140 143 145 147 156 170 184 212 247 265
174 171 115 127 213 210 215 205 217 221 49 197 199 252 139 129 161 175 172 171 172 173 173 170 166 166 165 161 155 150 149 148 146 145 144 146 147 148 157 180 243 287 299 303
179 134 205 209 198 145 208 209 205 218 201 230 223 248 160 186 185 181 184 184 180 182 185 178 176 174 171 164 157 153 153 152 149 145 143 145 146 140 82 344 320 312 311 311
186 203 220 244 56 62 191 189 190 207 225 219 239 245 240 206 198 200 191 189 190 192 192 188 183 179 176 173 167 164 161 159 156 155 152 149 147 111 2 342 337 339 332 327
156 151 116 61 83 90 7 230 202 212 229 236 250 258 248 293 183 193 192 193 202 201 194 189 187 183 182 179 174 169 167 164 160 157 149 133 69 13 353 343 337 336 331 326
158 143 127 168 112 98 284 226 208 221 230 228 238 246 238 193 201 203 202 209 208 201 192 193 190 187 183 180 176 172 168 163 157 154 146 91 346 341 331 328 324 320 317 314
144 129 121 123 122 216 250 65 217 217 234 224 247 256 240 242 218 218 220 218 205 198 195 194 189 186 183 178 175 171 166 162 162 176 291 302 299 302 307 311 313 313 312 311
85 126 162 207 211 299 287 189 183 192 244 235 241 250 250 250 210 230 224 220 215 201 195 189 186 183 178 175 173 172 172 175 196 265 289 298 300 303 305 308 309 309 308 307
127 39 213 150 223 232 346 90 125 129 265 205 221 243 240 151 223 242 219 205 187 185 188 182 178 176 176 173 170 169 170 198 290 286 291 299 303 307 309 310 311 311 311 310
154 182 202 213 225 277 122 143 145 179 256 354 340 300 173 192 239 235 189 178 186 185 175 172 171 172 168 163 165 228 265 249 270 290 299 304 305 307 309 309 311 311 311 310
176 166 178 190 210 250 143 133 185 90 39 339 291 262 192 198 176 165 173 173 169 165 164 166 166 164 167 200 221 220 240 269 289 299 304 306 309 309 308 308 310 310 309 308
208 212 174 201 212 101 182 76 203 240 306 277 233 219 192 170 163 168 160 159 159 161 161 162 165 178 193 199 223 250 275 292 302 307 308 309 309 308 308 307 307 307 305 304
214 177 213 167 196 192 231 236 227 240 256 273 264 223 191 170 166 162 162 160 160 160 162 162 177 191 205 225 253 276 291 300 304 305 306 306 305 305 304 303 303 303 306 308
137 149 172 264 171 301 245 238 244 241 240 235 211 187 179 181 174 170 165 163 163 164 167 177 189 201 221 244 263 277 288 297 302 305 307 308 308 308 307 306 308 308 308 308
187 171 192 220 154 200 231 272 237 236 222 205 191 176 180 181 172 171 168 169 172 176 184 192 204 221 239 252 264 278 291 299 304 309 313 315 317 317 318 318 316 314 312 308
Wind_Speed_850mb
26 20 29 35 34 10 28 28 22 17 6 12 25 30 29 30 23 22 26 26 26 27 23 22 28 33 37 41 44 47 46 45 53 55 58 61 61 58 57 55 50 46 44 41
14 31 26 10 13 12 20 29 19 9 6 8 11 25 27 33 38 35 36 35 33 30 28 25 33 39 45 50 53 55 52 50 54 59 61 60 57 60 58 56 56 52 50 48
24 14 20 15 12 19 12 24 19 3 10 4 13 22 31 29 39 34 31 32 29 24 29 24 28 34 40 43 51 62 63 58 53 56 56 57 53 54 57 58 59 57 52 53
16 7 20 24 27 14 14 5 14 18 14 11 5 9 8 17 21 21 30 32 29 21 25 27 26 26 31 38 40 43 48 51 57 54 47 50 58 60 56 52 55 53 50 51
10 16 24 25 22 25 6 12 13 10 6 7 12 10 10 5 17 22 25 18 15 14 15 13 17 20 21 24 30 33 36 40 44 53 53 50 52 47 37 37 41 44 43 42
8 1 5 6 13 5 28 19 16 8 5 10 21 16 13 14 7 9 18 16 15 13 12 13 13 13 11 11 12 14 18 21 29 39 47 47 42 42 34 36 38 40 40 37
8 9 4 9 17 12 13 28 7 9 9 11 5 5 24 4 5 7 18 16 17 15 14 12 13 13 12 11 8 7 8 12 19 29 39 42 41 39 40 38 36 33 35 33
23 14 20 16 5 14 27 29 10 13 11 6 6 15 10 2 7 14 11 11 16 18 17 15 15 14 13 12 10 8 9 10 13 20 29 35 41 37 32 32 34 35 38 32
24 16 5 2 1 11 13 13 6 11 4 0 13 14 15 16 11 14 19 18 17 16 14 16 15 14 12 10 10 9 9 10 12 15 18 22 26 28 28 26 27 27 31 32
7 8 2 5 4 2 9 19 7 5 8 9 11 13 18 12 22 20 22 26 21 16 15 16 16 14 12 12 11 11 11 11 11 12 12 12 14 15 18 20 21 23 24 23
12 5 4 6 18 26 9 10 9 7 6 7 5 9 7 8 20 26 28 28 24 21 19 18 17 16 14 14 14 15 15 15 15 16 17 16 17 16 15 14 13 11 12 12
5 9 9 17 6 7 10 21 25 10 12 12 3 12 5 7 2 28 30 28 23 22 21 20 21 20 19 19 20 21 21 21 21 20 20 21 19 16 15 13 10 9 9 12
17 8 8 4 4 3 14 20 30 27 7 12 10 15 4 8 10 19 32 31 29 27 24 25 25 26 25 24 25 25 25 24 23 22 19 16 13 11 7 4 3 7 11 15
23 6 21 28 9 19 17 24 22 23 8 30 23 40 10 13 19 25 28 31 31 32 30 29 30 29 29 27 27 27 26 24 21 18 14 11 8 5 1 3 6 9 14 17
11 12 12 25 9 5 7 23 29 33 46 25 46 42 31 18 23 41 36 31 34 38 39 35 34 33 32 29 27 26 24 22 19 15 11 8 5 1 3 7 11 13 18 22
7 4 4 4 7 5 3 14 36 44 47 41 51 40 17 6 31 32 41 43 47 45 42 39 39 38 36 32 29 26 22 19 15 12 8 4 2 4 8 12 16 20 25 29
14 11 7 5 7 10 8 44 27 32 39 37 42 59 14 14 24 35 46 57 57 49 47 47 45 42 37 32 28 25 21 16 12 8 4 1 4 8 13 17 22 27 31 35
11 11 4 7 6 12 14 6 37 39 36 36 42 43 19 20 47 57 65 68 55 55 53 50 48 44 39 33 27 22 17 12 7 3 2 7 11 15 20 25 32 37 40 43
4 8 6 9 14 19 30 7 14 19 42 41 44 45 41 22 10 33 45 46 56 58 54 52 47 43 38 32 27 22 17 11 5 5 9 15 21 25 29 34 39 44 48 50
6 4 10 7 12 18 6 7 10 12 34 20 36 39 24 27 16 21 37 40 48 54 60 59 49 45 37 32 26 20 12 4 9 15 18 23 28 34 40 44 49 53 57 61
10 5 26 24 11 13 7 16 16 18 7 6 4 9 15 13 21 13 32 47 54 58 58 54 48 42 34 27 15 6 13 17 16 19 25 30 36 41 47 51 54 59 62 66
20 18 9 5 13 29 17 13 18 2 2 4 4 6 19 22 15 30 42 54 60 61 56 49 45 37 24 14 18 20 15 17 21 25 31 36 41 47 51 55 56 60 64 68
12 7 10 17 10 5 35 6 19 1 5 5 7 9 19 29 35 42 53 57 57 55 52 46 36 23 25 21 17 16 17 21 25 31 36 40 43 48 52 57 59 61 61 65
11 7 4 4 9 4 8 19 15 10 18 18 17 14 26 38 46 51 57 58 56 51 45 37 29 27 22 18 15 17 21 24 28 32 37 43 48 51 55 59 62 64 62 63
5 21 10 10 4 6 22 30 23 25 19 17 18 22 32 44 56 59 59 55 50 43 37 33 28 22 18 18 19 19 21 25 31 37 42 46 50 54 56 57 59 61 59 58
15 10 12 10 10 6 2 9 28 25 24 26 31 37 38 46 57 55 52 47 43 38 32 27 23 20 19 20 19 20 24 28 32 35 40 45 49 53 57 61 64 60 64 62
Wind_Direction_850mb
190 198 200 195 203 247 197 203 201 189 126 217 232 249 246 241 224 242 242 231 219 219 216 225 228 236 239 236 233 233 227 230 241 237 235 238 241 243 244 247 248 246 246 245
172 215 199 147 134 152 180 193 186 130 135 207 231 259 255 248 242 234 238 237 227 217 222 246 248 243 247 245 240 235 232 229 237 242 241 241 245 247 252 254 253 251 250 250
196 193 147 167 162 177 193 194 168 194 155 232 283 266 246 237 244 237 232 236 241 235 234 235 246 246 242 248 243 240 238 235 230 243 242 236 237 244 250 249 253 254 251 251
231 141 179 184 189 169 185 95 138 134 176 230 265 262 177 225 225 213 229 223 228 225 242 238 238 241 235 237 242 240 240 241 237 223 230 238 235 237 247 252 257 256 255 251
162 155 180 179 193 193 155 114 114 135 195 292 185 263 237 146 250 222 196 181 193 196 192 206 216 227 232 235 239 237 238 240 236 219 220 227 241 236 241 251 248 254 257 250
98 358 198 157 72 228 137 122 95 114 191 246 231 223 251 209 227 121 151 172 175 169 171 177 186 184 193 194 213 223 228 233 226 218 221 222 235 235 227 226 243 251 253 249
129 148 116 170 101 136 193 162 144 194 201 245 56 210 246 183 157 220 163 168 159 157 157 157 166 165 163 154 156 181 205 222 229 231 227 225 225 239 232 228 231 246 254 253
182 193 181 168 202 181 194 191 178 190 195 191 88 230 245 23 83 170 168 168 161 156 170 171 179 172 164 162 167 195 208 216 218 220 219 217 215 216 225 226 226 230 246 253
193 173 63 82 52 158 170 202 71 109 43 99 203 247 273 177 178 198 181 180 174 162 165 178 182 179 172 177 184 195 209 220 220 224 226 227 223 219 221 226 230 235 239 245
211 118 21 100 169 165 214 146 152 232 178 225 224 258 244 206 217 191 184 186 174 168 175 179 177 179 176 172 174 174 187 192 189 191 190 187 185 191 197 207 216 223 235 240
163 110 107 167 211 181 159 180 214 241 201 208 243 232 32 288 188 190 187 179 173 170 177 179 175 172 168 166 168 168 163 161 162 161 161 162 165 169 174 177 184 196 210 226
168 101 154 196 47 357 282 212 186 190 202 238 35 262 93 52 164 179 174 166 163 171 170 169 163 162 164 163 154 151 150 147 141 138 140 143 145 147 156 170 184 212 247 265
174 171 115 127 213 210 215 205 217 221 49 197 199 252 139 129 161 175 172 171 172 173 173 170 166 166 165 161 155 150 149 148 146 145 144 146 147 148 157 180 243 287 299 303
179 134 205 209 198 145 208 209 205 218 201 230 223 248 160 186 185 181 184 184 180 182 185 178 176 174 171 164 157 153 153 152 149 145 143 145 146 140 82 344 320 312 311 311
186 203 220 244 56 62 191 189 190 207 225 219 239 245 240 206 198 200 191 189 190 192 192 188 183 179 176 173 167 164 161 159 156 155 152 149 147 111 2 342 337 339 332 327
156 151 116 61 83 90 7 230 202 212 229 236 250 258 248 293 183 193 192 193 202 201 194 189 187 183 182 179 174 169 167 164 160 157 149 133 69 13 353 343 337 336 331 326
158 143 127 168 112 98 284 226 208 221 230 228 238 246 238 193 201 203 202 209 208 201 192 193 190 187 183 180 176 172 168 163 157 154 146 91 346 341 331 328 324 320 317 314
144 129 121 123 122 216 250 65 217 217 234 224 247 256 240 242 218 218 220 218 205 198 195 194 189 186 183 178 175 171 166 162 162 176 291 302 299 302 307 311 313 313 312 311
85 126 162 207 211 299 287 189 183 192 244 235 241 250 250 250 210 230 224 220 215 201 195 189 186 183 178 175 173 172 172 175 196 265 289 298 300 303 305 308 309 309 308 307
127 39 213 150 223 232 346 90 125 129 265 205 221 243 240 151 223 242 219 205 187 185 188 182 178 176 176 173 170 169 170 198 290 286 291 299 303 307 309 310 311 311 311 310
154 182 202 213 225 277 122 143 145 179 256 354 340 300 173 192 239 235 189 178 186 185 175 172 171 172 168 163 165 228 265 249 270 290 299 304 305 307 309 309 311 311 311 310
176 166 178 190 210 250 143 133 185 90 39 339 291 262 192 198 176 165 173 173 169 165 164 166 166 164 167 200 221 220 240 269 289 299 304 306 309 309 308 308 310 310 309 308
208 212 174 201 212 101 182 76 203 240 306 277 233 219 192 170 163 168 160 159 159 161 161 162 165 178 193 199 223 250 275 292 302 307 308 309 309 308 308 307 307 307 305 304
214 177 213 167 196 192 231 236 227 240 256 273 264 223 191 170 166 162 162 160 160 160 162 162 177 191 205 225 253 276 291 300 304 305 306 306 305 305 304 303 303 303 306 308
137 149 172 264 171 301 245 238 244 241 240 235 211 187 179 181 174 170 165 163 163 164 167 177 189 201 221 244 263 277 288 297 302 305 307 308 308 308 307 306 308 308 308 308
187 171 192 220 154 200 231 272 237 236 222 205 191 176 180 181 172 171 168 169 172 176 184 192 204 221 239 252 264 278 291 299 304 309 313 315 317 317 318 318 316 314 312 308